Wind_Speed
16 18 20 20 21 21 21 22 25 27 27 28 28 30 32 35 36 23 7 11 4 10 12 6 5 5 5 2 4 5 3 4 6 7 8 6 7 2 5 5 4 3 4 6 6
13 16 18 21 22 22 23 25 27 28 28 28 30 30 30 32 30 16 17 9 8 6 9 9 4 6 2 4 3 5 5 10 7 6 9 7 4 15 4 12 9 8 2 1 18
16 17 19 20 22 25 26 30 30 30 29 29 29 29 29 24 6 6 5 2 7 8 7 6 4 5 3 4 5 6 7 6 6 8 8 13 4 5 5 9 10 11 9 6 6
19 20 22 22 24 26 31 33 33 32 31 29 27 25 26 8 6 3 4 4 2 5 7 4 4 5 5 6 6 5 5 5 4 7 6 6 9 5 9 11 11 12 6 5 9
19 20 23 24 27 30 33 35 35 35 34 28 24 21 11 4 11 16 14 14 5 6 7 4 5 5 5 5 4 6 5 8 8 11 10 10 11 12 10 11 12 10 6 9 9
18 20 23 25 28 31 34 34 35 33 30 28 21 14 2 6 7 5 7 4 9 8 5 6 5 4 5 5 6 4 3 6 7 7 6 9 12 4 7 9 8 6 9 8 11
18 21 23 26 30 33 36 36 33 31 31 27 18 5 5 19 9 6 16 19 11 13 5 9 4 4 2 4 3 3 5 5 6 6 7 2 18 8 8 6 6 9 8 8 6
20 23 26 26 29 34 37 34 31 31 25 18 6 7 9 13 17 23 19 21 17 18 20 18 10 5 4 4 6 2 2 4 4 6 4 6 33 1 9 5 10 10 8 8 10
20 22 25 26 28 33 34 31 25 11 10 7 8 5 10 11 9 15 16 9 8 10 7 6 4 5 3 3 4 1 9 6 4 6 6 7 19 2 7 11 9 9 9 9 11
20 22 24 26 28 29 30 24 10 6 7 5 3 1 8 5 10 22 8 9 4 0 3 4 3 4 2 4 11 6 6 4 4 4 3 6 19 9 9 10 11 9 10 9 9
20 20 23 24 26 25 27 7 8 5 6 5 7 7 18 9 15 4 4 10 2 2 4 2 3 7 11 15 8 2 4 7 2 4 5 16 17 14 11 9 11 10 13 14 11
17 22 24 23 25 14 16 5 5 10 13 14 21 22 36 12 9 16 14 5 5 6 4 3 12 8 8 4 6 6 8 13 9 10 7 11 20 17 7 8 9 10 14 15 16
17 22 24 24 19 11 6 9 22 20 6 10 9 9 7 17 11 18 6 5 7 8 9 11 8 5 12 5 6 7 9 4 12 6 5 8 19 12 7 5 7 9 12 14 16
17 20 21 24 4 19 4 24 25 14 4 7 4 6 5 6 6 10 18 11 8 15 8 11 9 13 6 8 9 13 8 13 11 3 9 6 15 20 6 9 6 9 13 13 9
16 17 17 14 13 9 17 27 24 1 6 3 2 2 2 3 9 1 7 4 10 7 6 8 3 8 14 11 10 11 8 9 11 9 2 5 2 16 8 16 13 10 10 9 10
14 14 16 12 14 8 22 23 5 3 7 7 4 10 16 8 7 3 2 3 6 4 4 6 1 4 6 5 7 3 2 2 1 1 6 6 6 23 4 9 7 10 16 11 11
12 13 15 11 6 17 19 7 3 3 7 4 7 11 17 14 10 3 3 6 3 3 7 0 7 4 5 4 4 4 5 2 3 2 11 5 4 15 8 9 8 8 12 12 15
12 14 16 17 16 12 9 3 3 3 6 10 12 13 6 17 9 17 5 4 5 4 1 5 4 7 4 6 6 5 8 5 6 5 7 4 6 5 4 3 6 8 7 14 21
12 13 12 11 5 3 3 1 4 3 5 10 10 6 4 9 10 10 8 13 5 7 8 2 4 3 4 2 2 2 3 4 4 3 2 5 6 6 4 7 8 8 12 13 18
8 8 7 9 4 4 2 4 3 3 7 6 3 4 6 11 12 13 7 8 12 10 6 1 5 0 3 2 4 4 3 2 3 3 6 5 3 5 7 5 8 12 13 15 22
3 3 7 3 8 2 2 4 4 5 4 4 6 8 8 9 8 7 4 5 13 14 9 4 2 2 2 3 0 4 3 4 1 1 3 3 5 2 2 1 7 10 12 18 25
2 2 2 6 2 2 2 3 4 8 10 10 7 9 12 13 10 12 9 2 8 8 8 5 1 3 2 4 1 4 4 3 3 4 2 3 5 5 12 2 3 2 8 14 21
1 2 4 4 1 2 4 6 7 12 6 3 4 7 8 6 5 7 4 0 6 6 5 4 2 2 2 4 7 5 2 4 4 4 5 5 5 14 15 8 2 5 4 6 15
2 2 3 0 3 2 2 5 4 5 11 10 6 9 13 9 8 10 2 1 3 3 13 3 3 4 3 2 2 2 1 4 0 1 3 5 15 15 18 12 3 2 4 7 13
1 3 3 3 3 3 3 6 12 7 4 10 4 8 3 5 13 8 1 2 2 6 5 3 3 1 3 5 3 4 7 3 6 9 6 12 15 17 19 9 7 6 2 9 16
3 1 2 3 4 3 3 4 10 12 8 7 6 9 9 5 2 4 1 3 3 2 3 4 2 2 4 4 4 8 10 11 11 13 13 17 20 17 14 7 9 3 4 9 12
5 2 2 4 2 0 4 5 7 8 6 3 5 7 8 10 7 5 3 4 5 4 4 2 3 2 4 1 5 9 10 10 7 10 8 14 16 6 6 9 3 8 4 5 6
Wind_Direction
350 347 346 345 345 347 343 342 340 340 339 332 332 334 335 333 325 321 245 257 233 213 204 178 152 173 178 211 166 129 105 194 232 179 252 313 360 303 322 264 318 289 146 265 197
348 346 345 342 342 342 340 337 337 337 336 335 330 332 336 336 324 275 286 263 203 190 188 185 175 153 193 204 210 159 164 210 215 203 276 276 290 295 343 306 288 306 259 358 166
341 340 339 338 336 335 333 335 336 333 332 332 331 331 336 338 306 260 355 137 162 188 207 207 186 154 217 175 208 197 218 190 246 241 239 281 240 247 271 283 250 266 263 162 166
340 338 336 336 335 333 332 331 330 329 328 328 328 332 336 344 289 344 50 59 166 190 213 171 161 176 209 207 222 250 202 199 235 261 268 240 292 247 227 244 257 248 258 183 187
334 333 334 332 331 330 329 326 324 324 324 323 326 334 352 339 249 260 273 289 281 199 214 202 183 185 200 203 266 217 243 240 229 259 267 271 252 259 248 246 264 278 235 216 211
341 336 335 332 331 332 331 328 323 321 321 319 319 329 352 282 268 292 141 324 249 217 231 191 226 225 259 229 203 272 254 258 251 237 242 267 270 210 254 262 281 289 291 224 210
342 338 337 334 331 331 330 326 325 319 313 306 301 271 243 245 277 249 262 287 265 237 223 237 208 165 235 278 248 250 291 285 223 231 229 254 270 230 252 293 285 290 285 287 237
339 336 334 329 331 331 328 325 320 317 306 295 250 171 250 269 292 283 269 268 251 250 248 252 236 198 194 274 346 313 263 259 229 195 251 113 272 130 289 292 291 295 293 298 290
342 340 336 330 330 332 330 322 322 342 352 122 128 158 265 302 272 279 257 228 212 219 218 207 162 200 185 125 332 285 256 237 282 262 259 180 277 242 317 293 284 282 285 291 299
344 340 332 332 332 337 339 320 338 45 36 95 98 309 267 293 339 317 274 233 217 116 345 136 144 168 104 138 232 209 246 239 191 263 261 264 279 287 275 279 271 281 290 292 295
341 341 335 330 334 339 351 355 6 342 5 260 271 269 294 272 318 300 2 333 228 112 196 209 174 199 207 217 264 260 255 260 216 227 299 279 277 279 279 284 287 289 292 291 286
342 343 338 332 332 344 17 62 36 290 296 261 252 249 249 267 280 264 264 221 185 200 168 298 245 220 224 186 218 242 259 275 290 250 186 271 276 279 249 251 245 267 281 286 294
338 340 340 334 335 354 351 25 339 342 263 288 236 256 235 195 221 257 196 199 203 216 193 212 224 210 201 208 205 228 235 239 255 320 254 286 281 270 253 247 255 257 267 278 277
334 342 342 342 27 343 340 333 336 340 295 283 248 267 193 192 251 219 205 189 212 221 185 233 223 249 210 218 199 255 198 241 260 246 272 177 285 287 257 282 269 287 283 274 271
334 344 347 355 321 331 321 326 328 246 306 314 317 98 286 222 315 276 195 178 219 188 154 231 185 203 236 235 196 245 209 233 245 255 317 209 231 289 353 301 292 292 293 275 248
333 342 342 350 321 310 328 326 333 63 251 308 29 345 353 316 286 328 181 264 205 216 236 214 231 183 203 204 192 232 171 268 358 174 247 265 171 281 230 271 297 315 311 331 324
336 333 326 317 284 321 330 345 46 194 334 312 358 341 336 343 340 254 227 199 211 177 240 344 239 213 185 253 202 165 103 331 298 201 251 178 236 257 288 283 306 323 315 332 338
333 329 317 295 296 303 332 46 196 240 262 346 350 328 323 12 342 344 305 318 239 266 297 196 299 167 168 182 199 185 161 169 233 225 261 222 241 245 247 352 330 324 343 337 357
333 327 303 348 306 204 66 149 223 242 336 354 342 329 8 7 347 353 343 356 14 348 238 209 235 339 94 181 112 228 160 209 244 252 263 235 284 310 314 3 337 345 348 342 353
344 312 318 348 118 125 119 252 258 314 355 1 326 324 352 346 331 342 337 1 349 346 300 47 287 72 301 111 32 83 3 56 359 224 240 262 248 243 303 344 345 347 342 343 343
7 13 15 113 139 73 202 239 305 294 327 310 330 305 303 322 283 280 301 320 358 346 335 32 72 224 261 78 344 15 36 35 213 281 288 275 269 192 320 13 351 4 360 348 334
30 4 158 360 27 220 228 235 299 303 303 299 288 281 273 288 280 268 248 328 343 341 340 335 94 305 280 306 156 131 123 104 146 360 297 241 269 55 19 81 205 37 4 6 309
83 283 13 149 147 273 275 283 287 289 273 276 272 266 290 285 319 273 238 72 345 344 332 318 312 340 320 32 17 47 72 56 149 154 231 286 279 335 328 302 202 298 348 63 306
87 359 314 149 173 215 284 278 269 267 269 256 253 276 271 263 251 273 244 94 338 314 301 295 239 175 220 113 166 250 305 330 184 183 276 250 291 299 310 324 298 263 348 32 310
109 236 215 286 301 268 319 288 287 283 266 258 269 235 293 245 262 257 199 354 282 342 5 36 280 223 250 232 246 260 285 248 227 237 225 263 261 277 283 302 296 253 286 35 331
147 189 317 268 285 276 275 260 274 291 261 269 248 312 305 256 224 269 199 155 220 354 17 341 282 337 284 239 247 275 267 252 240 246 254 262 262 259 278 274 285 244 40 25 311
204 196 121 259 263 260 245 254 302 283 262 298 293 285 280 257 232 236 238 236 222 192 189 211 205 174 261 53 314 281 245 219 238 245 232 254 246 250 288 302 253 74 334 91 336
Height
829 827 824 819 814 809 805 802 800 798 794 790 786 782 777 771 764 759 754 744 743 743 745 749 750 754 756 757 757 761 786 793 776 776 757 741 745 730 729 733 727 721 724 717 717
827 825 822 819 815 809 805 802 798 795 791 788 784 779 775 768 761 752 740 740 740 743 744 746 750 752 759 757 757 764 783 779 762 756 752 744 745 740 740 736 730 725 716 716 717
826 823 819 816 813 808 804 800 796 792 789 785 782 778 773 767 763 744 739 739 740 741 744 745 747 750 757 755 755 756 760 759 751 747 746 741 743 739 740 743 732 728 717 717 719
825 822 819 814 810 806 802 798 794 790 787 782 780 776 773 769 767 742 741 741 741 741 743 744 747 753 757 756 750 757 749 746 743 740 742 745 734 737 736 730 718 716 713 715 715
822 819 817 813 808 804 799 795 790 786 783 780 779 776 773 773 753 741 742 741 741 741 742 743 747 748 752 749 747 750 745 740 738 737 737 735 736 731 726 719 713 711 712 712 713
822 818 814 812 808 802 796 790 785 781 779 777 776 777 778 775 741 739 737 739 739 740 741 741 741 741 744 744 747 737 737 736 734 734 732 733 727 726 718 710 711 710 709 709 709
821 818 814 810 806 800 792 786 780 777 774 772 773 775 775 754 740 739 737 738 738 737 737 737 738 740 740 741 734 734 741 739 736 730 731 726 720 728 712 708 709 707 704 701 700
820 817 813 808 803 798 791 783 776 771 766 764 767 773 764 738 738 734 735 732 734 734 734 734 736 737 739 734 737 739 740 748 729 727 723 728 708 713 708 711 711 706 702 698 692
819 815 812 808 802 796 789 780 772 767 763 764 767 770 757 736 736 730 730 730 728 730 730 729 732 737 737 746 753 750 749 749 741 725 727 732 720 714 710 710 709 704 701 696 690
818 814 811 806 802 794 787 778 772 768 767 767 769 771 745 736 731 731 729 730 726 726 728 730 735 743 748 752 752 751 752 745 742 731 727 736 724 718 713 710 707 704 699 693 689
819 814 809 805 802 795 787 778 781 774 772 768 764 758 741 735 733 729 731 729 726 727 737 730 741 747 740 731 731 738 744 745 741 735 737 730 723 716 711 710 706 702 694 689 685
819 814 809 804 800 797 794 791 802 804 780 763 753 747 738 737 737 725 730 735 730 734 733 738 736 732 730 734 741 743 746 740 734 729 738 731 716 706 709 706 701 697 690 684 678
818 816 808 803 799 798 798 799 799 795 788 751 735 731 727 730 726 717 725 724 727 731 730 735 726 715 725 733 740 740 742 742 739 731 727 729 712 704 700 697 693 688 683 679 676
818 813 810 803 801 801 798 796 793 791 785 745 730 723 720 720 719 705 705 715 721 721 726 725 716 719 725 726 731 736 729 729 734 739 741 723 724 692 699 694 689 685 679 676 673
817 813 810 806 807 806 803 796 792 791 783 730 723 721 716 719 709 705 703 711 715 715 718 717 711 718 719 718 720 719 720 725 727 732 731 726 744 691 695 692 687 681 676 673 668
816 813 810 807 807 805 801 795 793 798 782 740 728 729 726 719 708 704 707 705 704 710 710 712 704 708 711 708 712 710 717 720 724 734 741 716 732 694 706 694 683 676 671 670 667
814 812 810 810 807 805 801 797 807 798 759 744 745 741 731 724 715 707 707 714 713 720 718 709 707 704 703 712 710 715 727 744 745 745 728 714 724 703 694 686 683 681 675 670 663
813 811 808 807 805 806 804 805 808 773 767 750 756 745 742 738 728 723 711 715 708 709 713 717 719 706 700 706 710 716 722 740 736 738 725 711 720 703 683 683 683 678 678 671 663
813 810 806 805 803 805 810 814 792 785 773 773 765 758 747 748 752 735 734 729 722 713 715 715 712 700 699 698 703 710 720 709 723 722 729 718 705 688 684 688 684 681 678 674 670
813 810 806 805 805 806 810 804 795 784 783 781 783 769 776 769 763 748 739 734 729 722 716 710 722 709 704 700 706 711 713 720 728 727 722 716 710 708 693 694 688 687 681 674 668
813 813 808 804 806 811 819 808 794 787 785 785 783 782 776 779 767 757 744 736 731 726 722 718 722 719 710 716 719 721 727 731 728 730 726 720 714 695 697 695 699 691 685 683 674
815 828 807 808 816 806 811 799 790 788 787 788 780 779 779 776 772 761 746 748 738 735 732 723 728 733 721 715 711 719 732 734 734 736 737 740 724 697 697 695 691 689 685 680 680
820 814 807 807 834 830 804 799 797 792 785 780 777 773 770 775 780 755 743 741 741 739 737 732 735 739 723 726 724 726 725 726 733 740 734 733 720 695 694 692 689 688 681 680 685
819 830 814 808 810 810 812 803 792 784 782 778 774 770 770 766 766 766 747 742 744 742 735 733 739 731 739 734 736 737 733 732 733 754 731 733 724 709 701 694 688 687 683 682 684
818 822 815 824 814 806 806 800 796 792 779 773 770 769 773 766 767 754 748 748 742 743 737 741 737 732 734 734 732 735 737 737 737 734 740 721 717 708 698 693 685 681 679 679 682
817 818 814 811 807 807 803 797 787 779 783 774 771 767 769 763 752 755 750 749 745 743 742 744 743 739 738 733 733 737 732 730 729 725 723 715 709 696 689 686 678 678 678 681 684
813 813 816 811 809 808 804 792 785 782 772 768 770 770 764 757 749 746 745 746 746 746 749 748 749 747 741 733 736 734 719 719 713 710 710 712 696 689 690 685 679 675 684 681 683